Time,TemperatureF,DewpointF,PressureIn,WindDirection,WindDirectionDegrees,WindSpeedMPH,WindSpeedGustMPH,Humidity,HourlyPrecipIn,Conditions,Clouds,dailyrainin,SoftwareType,DateUTC
2013-09-22 00:01:00,57.9,54.4,29.72,SW,233,1.0,4.0,88,0.00,,,0.00,Wunderground v.1.15,2013-09-22 07:01:00,
2013-09-22 00:07:00,57.9,54.4,29.72,SW,234,1.0,3.0,88,0.00,,,0.00,Wunderground v.1.15,2013-09-22 07:07:00,
2013-09-22 00:12:00,57.9,54.4,29.72,SW,234,1.0,3.0,88,0.00,,,0.00,Wunderground v.1.15,2013-09-22 07:12:00,
2013-09-22 00:18:00,57.9,54.4,29.72,SW,234,0.0,1.0,88,0.00,,,0.00,Wunderground v.1.15,2013-09-22 07:18:00,
2013-09-22 00:24:00,58.0,54.5,29.72,SW,214,0.0,4.0,88,0.00,,,0.00,Wunderground v.1.15,2013-09-22 07:24:00,
2013-09-22 00:30:00,58.0,54.8,29.72,WSW,253,1.0,4.0,89,0.00,,,0.00,Wunderground v.1.15,2013-09-22 07:30:00,
2013-09-22 00:35:00,58.0,54.8,29.72,WSW,253,1.0,1.0,89,0.00,,,0.00,Wunderground v.1.15,2013-09-22 07:35:00,
2013-09-22 00:41:00,58.0,54.8,29.72,WSW,252,0.0,2.0,89,0.00,,,0.00,Wunderground v.1.15,2013-09-22 07:41:00,
2013-09-22 00:46:00,57.9,54.7,29.72,WSW,252,0.0,1.0,89,0.00,,,0.00,Wunderground v.1.15,2013-09-22 07:46:00,
2013-09-22 00:52:00,57.9,55.0,29.72,WSW,252,0.0,1.0,90,0.00,,,0.00,Wunderground v.1.15,2013-09-22 07:52:00,
2013-09-22 00:57:00,57.9,55.0,29.72,West,259,0.0,5.0,90,0.00,,,0.00,Wunderground v.1.15,2013-09-22 07:57:00,
2013-09-22 01:04:00,57.8,54.9,29.72,SW,225,2.0,2.0,90,0.00,,,0.00,Wunderground v.1.15,2013-09-22 08:04:00,
2013-09-22 01:10:00,57.7,54.8,29.72,SSW,211,1.0,3.0,90,0.00,,,0.00,Wunderground v.1.15,2013-09-22 08:10:00,
2013-09-22 01:15:00,57.6,55.0,29.72,SW,232,1.0,5.0,91,0.00,,,0.00,Wunderground v.1.15,2013-09-22 08:15:00,
2013-09-22 01:21:00,57.5,54.9,29.72,SW,230,3.0,5.0,91,0.00,,,0.00,Wunderground v.1.15,2013-09-22 08:21:00,
2013-09-22 01:26:00,57.5,55.2,29.72,WSW,246,2.0,3.0,92,0.00,,,0.01,Wunderground v.1.15,2013-09-22 08:26:00,
2013-09-22 01:32:00,57.4,55.1,29.72,WSW,242,1.0,3.0,92,0.00,,,0.01,Wunderground v.1.15,2013-09-22 08:32:00,
2013-09-22 01:37:00,57.4,55.1,29.72,WSW,242,1.0,1.0,92,0.00,,,0.01,Wunderground v.1.15,2013-09-22 08:37:00,
2013-09-22 01:43:00,57.3,55.0,29.72,WSW,242,0.0,2.0,92,0.00,,,0.01,Wunderground v.1.15,2013-09-22 08:43:00,
2013-09-22 01:48:00,57.2,55.2,29.72,WSW,242,0.0,0.0,93,0.00,,,0.01,Wunderground v.1.15,2013-09-22 08:48:00,
2013-09-22 01:54:00,57.1,55.1,29.72,WSW,242,0.0,0.0,93,0.00,,,0.01,Wunderground v.1.15,2013-09-22 08:54:00,
2013-09-22 02:00:00,57.0,55.0,29.72,WSW,242,0.0,0.0,93,0.00,,,0.01,Wunderground v.1.15,2013-09-22 09:00:00,
2013-09-22 02:05:00,57.0,55.0,29.72,WSW,242,0.0,0.0,93,0.00,,,0.01,Wunderground v.1.15,2013-09-22 09:05:00,
2013-09-22 02:10:00,56.8,54.8,29.72,SE,130,0.0,1.0,93,0.00,,,0.01,Wunderground v.1.15,2013-09-22 09:10:00,
2013-09-22 02:16:00,56.8,54.8,29.72,SW,232,0.0,0.0,93,0.00,,,0.01,Wunderground v.1.15,2013-09-22 09:16:00,
2013-09-22 02:21:00,56.7,54.7,29.72,WSW,244,1.0,7.0,93,0.00,,,0.01,Wunderground v.1.15,2013-09-22 09:21:00,
2013-09-22 02:27:00,56.6,54.6,29.72,SW,221,2.0,8.0,93,0.00,,,0.01,Wunderground v.1.15,2013-09-22 09:27:00,
2013-09-22 02:32:00,56.5,54.5,29.72,SW,233,3.0,8.0,93,0.00,,,0.01,Wunderground v.1.15,2013-09-22 09:32:00,
2013-09-22 02:38:00,56.4,54.4,29.72,SW,235,3.0,4.0,93,0.00,,,0.01,Wunderground v.1.15,2013-09-22 09:38:00,
2013-09-22 02:43:00,56.4,54.4,29.72,SW,236,2.0,4.0,93,0.00,,,0.01,Wunderground v.1.15,2013-09-22 09:43:00,
2013-09-22 02:48:00,56.4,54.4,29.71,SW,219,1.0,2.0,93,0.00,,,0.01,Wunderground v.1.15,2013-09-22 09:48:00,
2013-09-22 02:54:00,56.4,54.4,29.71,WSW,250,2.0,2.0,93,0.00,,,0.01,Wunderground v.1.15,2013-09-22 09:54:00,
2013-09-22 02:59:00,56.3,54.3,29.71,SW,234,2.0,4.0,93,0.00,,,0.01,Wunderground v.1.15,2013-09-22 09:59:00,
2013-09-22 03:04:00,56.3,54.3,29.71,SW,221,2.0,4.0,93,0.00,,,0.01,Wunderground v.1.15,2013-09-22 10:04:00,
2013-09-22 03:10:00,56.3,54.0,29.71,SW,224,2.0,4.0,92,0.00,,,0.01,Wunderground v.1.15,2013-09-22 10:10:00,
2013-09-22 03:16:00,56.2,53.9,29.71,SW,217,1.0,3.0,92,0.00,,,0.01,Wunderground v.1.15,2013-09-22 10:16:00,
2013-09-22 03:22:00,56.2,53.9,29.71,SW,230,1.0,3.0,92,0.00,,,0.01,Wunderground v.1.15,2013-09-22 10:22:00,
2013-09-22 03:28:00,56.2,53.9,29.71,SSW,207,2.0,2.0,92,0.00,,,0.01,Wunderground v.1.15,2013-09-22 10:28:00,
2013-09-22 03:33:00,56.2,53.9,29.70,SW,229,2.0,4.0,92,0.00,,,0.01,Wunderground v.1.15,2013-09-22 10:33:00,
2013-09-22 03:38:00,56.1,53.8,29.70,SW,228,2.0,5.0,92,0.00,,,0.01,Wunderground v.1.15,2013-09-22 10:38:00,
2013-09-22 03:44:00,56.2,53.9,29.70,WSW,241,2.0,5.0,92,0.00,,,0.01,Wunderground v.1.15,2013-09-22 10:44:00,
2013-09-22 03:49:00,56.2,53.6,29.71,SW,227,2.0,5.0,91,0.00,,,0.01,Wunderground v.1.15,2013-09-22 10:49:00,
2013-09-22 03:57:00,56.2,53.9,29.70,SW,228,2.0,3.0,92,0.00,,,0.01,Wunderground v.1.15,2013-09-22 10:57:00,
2013-09-22 04:03:00,56.2,53.6,29.71,SW,226,1.0,5.0,91,0.00,,,0.01,Wunderground v.1.15,2013-09-22 11:03:00,
2013-09-22 04:09:00,56.2,53.6,29.70,SW,227,2.0,5.0,91,0.00,,,0.01,Wunderground v.1.15,2013-09-22 11:09:00,
2013-09-22 04:14:00,56.1,53.5,29.70,SW,236,2.0,2.0,91,0.00,,,0.01,Wunderground v.1.15,2013-09-22 11:14:00,
2013-09-22 04:20:00,56.1,53.8,29.70,WSW,242,2.0,4.0,92,0.00,,,0.01,Wunderground v.1.15,2013-09-22 11:20:00,
2013-09-22 04:26:00,56.1,53.8,29.70,SW,223,2.0,3.0,92,0.00,,,0.01,Wunderground v.1.15,2013-09-22 11:26:00,
2013-09-22 04:31:00,56.0,53.7,29.70,South,186,2.0,8.0,92,0.00,,,0.01,Wunderground v.1.15,2013-09-22 11:31:00,
2013-09-22 04:36:00,55.9,53.6,29.70,SW,221,2.0,6.0,92,0.00,,,0.01,Wunderground v.1.15,2013-09-22 11:36:00,
2013-09-22 04:42:00,55.9,53.9,29.70,WSW,249,2.0,6.0,93,0.00,,,0.01,Wunderground v.1.15,2013-09-22 11:42:00,
2013-09-22 04:47:00,55.9,53.9,29.70,West,268,2.0,6.0,93,0.00,,,0.01,Wunderground v.1.15,2013-09-22 11:47:00,
2013-09-22 04:53:00,55.8,53.5,29.70,WSW,250,4.0,10.0,92,0.00,,,0.01,Wunderground v.1.15,2013-09-22 11:53:00,
2013-09-22 04:58:00,55.7,53.4,29.70,WSW,242,3.0,4.0,92,0.00,,,0.01,Wunderground v.1.15,2013-09-22 11:58:00,
2013-09-22 05:04:00,55.7,53.7,29.70,SW,217,3.0,5.0,93,0.00,,,0.01,Wunderground v.1.15,2013-09-22 12:04:00,
2013-09-22 05:10:00,55.6,53.6,29.70,WSW,242,4.0,13.0,93,0.00,,,0.02,Wunderground v.1.15,2013-09-22 12:10:00,
2013-09-22 05:15:00,55.5,53.5,29.70,SW,225,4.0,9.0,93,0.13,,,0.03,Wunderground v.1.15,2013-09-22 12:15:00,
2013-09-22 05:21:00,55.4,53.4,29.70,WSW,252,5.0,9.0,93,0.07,,,0.03,Wunderground v.1.15,2013-09-22 12:21:00,
2013-09-22 05:26:00,55.0,53.0,29.70,SW,219,5.0,5.0,93,0.06,,,0.04,Wunderground v.1.15,2013-09-22 12:26:00,
2013-09-22 05:32:00,54.8,52.8,29.70,WSW,246,4.0,6.0,93,0.12,,,0.05,Wunderground v.1.15,2013-09-22 12:32:00,
2013-09-22 05:37:00,54.5,52.5,29.70,WNW,282,5.0,7.0,93,0.06,,,0.05,Wunderground v.1.15,2013-09-22 12:37:00,
2013-09-22 05:43:00,54.1,52.1,29.70,SW,228,4.0,7.0,93,0.04,,,0.05,Wunderground v.1.15,2013-09-22 12:43:00,
2013-09-22 05:49:00,53.9,51.9,29.70,SW,226,1.0,3.0,93,0.00,,,0.05,Wunderground v.1.15,2013-09-22 12:49:00,
2013-09-22 05:54:00,53.7,51.7,29.70,SW,226,0.0,0.0,93,0.00,,,0.05,Wunderground v.1.15,2013-09-22 12:54:00,
2013-09-22 05:59:00,53.6,51.9,29.70,SW,227,0.0,3.0,94,0.00,,,0.05,Wunderground v.1.15,2013-09-22 12:59:00,
2013-09-22 06:04:00,53.6,51.9,29.70,WSW,251,1.0,8.0,94,0.00,,,0.05,Wunderground v.1.15,2013-09-22 13:04:00,
2013-09-22 06:10:00,53.5,51.8,29.71,SW,228,1.0,8.0,94,0.00,,,0.05,Wunderground v.1.15,2013-09-22 13:10:00,
2013-09-22 06:16:00,53.5,51.8,29.71,SW,229,3.0,5.0,94,0.00,,,0.06,Wunderground v.1.15,2013-09-22 13:16:00,
2013-09-22 06:21:00,53.5,52.1,29.71,SW,230,3.0,5.0,95,0.12,,,0.07,Wunderground v.1.15,2013-09-22 13:21:00,
2013-09-22 06:26:00,53.5,52.1,29.70,SSW,196,2.0,2.0,95,0.06,,,0.07,Wunderground v.1.15,2013-09-22 13:26:00,
2013-09-22 06:32:00,53.4,52.0,29.70,SSW,196,1.0,2.0,95,0.04,,,0.07,Wunderground v.1.15,2013-09-22 13:32:00,
2013-09-22 06:37:00,53.4,52.0,29.70,WSW,246,2.0,2.0,95,0.00,,,0.07,Wunderground v.1.15,2013-09-22 13:37:00,
2013-09-22 06:43:00,53.3,51.9,29.70,WSW,241,3.0,3.0,95,0.00,,,0.07,Wunderground v.1.15,2013-09-22 13:43:00,
2013-09-22 06:48:00,53.3,51.9,29.70,WSW,240,2.0,2.0,95,0.00,,,0.07,Wunderground v.1.15,2013-09-22 13:48:00,
2013-09-22 06:53:00,53.3,51.9,29.70,WSW,239,1.0,3.0,95,0.00,,,0.07,Wunderground v.1.15,2013-09-22 13:53:00,
2013-09-22 06:59:00,53.3,51.9,29.70,WSW,257,1.0,3.0,95,0.00,,,0.07,Wunderground v.1.15,2013-09-22 13:59:00,
2013-09-22 07:04:00,53.3,51.9,29.70,WSW,257,1.0,1.0,95,0.00,,,0.07,Wunderground v.1.15,2013-09-22 14:04:00,
2013-09-22 07:09:00,53.3,52.2,29.70,WSW,239,1.0,3.0,96,0.00,,,0.07,Wunderground v.1.15,2013-09-22 14:09:00,
2013-09-22 07:14:00,53.4,52.3,29.71,WSW,242,1.0,1.0,96,0.00,,,0.07,Wunderground v.1.15,2013-09-22 14:14:00,
2013-09-22 07:20:00,53.4,52.3,29.71,SW,224,1.0,4.0,96,0.00,,,0.07,Wunderground v.1.15,2013-09-22 14:20:00,
2013-09-22 07:25:00,53.5,52.4,29.70,SSW,192,2.0,3.0,96,0.00,,,0.07,Wunderground v.1.15,2013-09-22 14:25:00,
2013-09-22 07:31:00,53.5,52.4,29.70,North,5,2.0,5.0,96,0.00,,,0.07,Wunderground v.1.15,2013-09-22 14:31:00,
2013-09-22 07:36:00,53.6,52.5,29.70,South,175,2.0,3.0,96,0.00,,,0.07,Wunderground v.1.15,2013-09-22 14:36:00,
2013-09-22 07:41:00,53.7,52.6,29.70,SSE,150,2.0,3.0,96,0.00,,,0.07,Wunderground v.1.15,2013-09-22 14:41:00,
2013-09-22 07:47:00,53.8,52.4,29.70,SE,140,2.0,5.0,95,0.00,,,0.07,Wunderground v.1.15,2013-09-22 14:47:00,
2013-09-22 07:52:00,53.8,51.8,29.70,SE,128,2.0,5.0,93,0.00,,,0.07,Wunderground v.1.15,2013-09-22 14:52:00,
2013-09-22 07:58:00,53.9,52.2,29.70,SE,128,1.0,2.0,94,0.00,,,0.07,Wunderground v.1.15,2013-09-22 14:58:00,
2013-09-22 08:03:00,53.9,52.5,29.70,WSW,243,0.0,2.0,95,0.00,,,0.07,Wunderground v.1.15,2013-09-22 15:03:00,
2013-09-22 08:09:00,54.0,52.6,29.70,West,266,0.0,5.0,95,0.00,,,0.07,Wunderground v.1.15,2013-09-22 15:09:00,
2013-09-22 08:15:00,54.1,52.7,29.70,WSW,244,1.0,2.0,95,0.00,,,0.07,Wunderground v.1.15,2013-09-22 15:15:00,
2013-09-22 08:21:00,54.1,52.7,29.69,SW,214,1.0,6.0,95,0.00,,,0.07,Wunderground v.1.15,2013-09-22 15:21:00,
2013-09-22 08:26:00,54.1,52.4,29.69,SW,217,3.0,5.0,94,0.00,,,0.07,Wunderground v.1.15,2013-09-22 15:26:00,
2013-09-22 08:32:00,54.1,52.1,29.69,WSW,254,3.0,5.0,93,0.00,,,0.07,Wunderground v.1.15,2013-09-22 15:32:00,
2013-09-22 08:37:00,54.2,52.5,29.69,WSW,240,2.0,3.0,94,0.00,,,0.07,Wunderground v.1.15,2013-09-22 15:37:00,
2013-09-22 08:43:00,54.3,52.6,29.69,WSW,250,1.0,4.0,94,0.00,,,0.07,Wunderground v.1.15,2013-09-22 15:43:00,
2013-09-22 08:48:00,54.3,52.6,29.69,WSW,242,1.0,9.0,94,0.00,,,0.07,Wunderground v.1.15,2013-09-22 15:48:00,
2013-09-22 08:53:00,54.2,52.2,29.69,SSW,198,2.0,9.0,93,0.00,,,0.07,Wunderground v.1.15,2013-09-22 15:53:00,
2013-09-22 08:58:00,54.2,51.9,29.69,SW,231,3.0,5.0,92,0.00,,,0.07,Wunderground v.1.15,2013-09-22 15:58:00,
2013-09-22 09:04:00,54.2,52.5,29.68,SW,231,1.0,1.0,94,0.00,,,0.07,Wunderground v.1.15,2013-09-22 16:04:00,
2013-09-22 09:10:00,54.4,52.7,29.68,East,98,0.0,4.0,94,0.00,,,0.07,Wunderground v.1.15,2013-09-22 16:10:00,
2013-09-22 09:15:00,54.4,52.4,29.68,East,97,1.0,4.0,93,0.00,,,0.07,Wunderground v.1.15,2013-09-22 16:15:00,
2013-09-22 09:21:00,54.5,52.5,29.67,ESE,109,1.0,5.0,93,0.00,,,0.07,Wunderground v.1.15,2013-09-22 16:21:00,
2013-09-22 09:26:00,54.6,52.3,29.67,ENE,67,1.0,1.0,92,0.00,,,0.07,Wunderground v.1.15,2013-09-22 16:26:00,
2013-09-22 09:32:00,54.9,52.6,29.67,ESE,113,2.0,5.0,92,0.00,,,0.07,Wunderground v.1.15,2013-09-22 16:32:00,
2013-09-22 09:37:00,55.4,52.5,29.67,SW,222,3.0,5.0,90,0.00,,,0.07,Wunderground v.1.15,2013-09-22 16:37:00,
2013-09-22 09:44:00,55.9,52.7,29.66,SE,146,1.0,4.0,89,0.00,,,0.07,Wunderground v.1.15,2013-09-22 16:44:00,
2013-09-22 09:50:00,56.3,52.2,29.66,SSE,155,3.0,7.0,86,0.00,,,0.07,Wunderground v.1.15,2013-09-22 16:50:00,
2013-09-22 09:55:00,56.6,52.1,29.65,SSE,148,3.0,6.0,85,0.00,,,0.07,Wunderground v.1.15,2013-09-22 16:55:00,
2013-09-22 10:00:00,56.9,52.4,29.65,WSW,237,3.0,9.0,85,0.00,,,0.07,Wunderground v.1.15,2013-09-22 17:00:00,
2013-09-22 10:06:00,57.3,51.5,29.65,ENE,68,4.0,4.0,81,0.00,,,0.07,Wunderground v.1.15,2013-09-22 17:06:00,
2013-09-22 10:11:00,57.5,51.7,29.65,South,188,4.0,17.0,81,0.00,,,0.07,Wunderground v.1.15,2013-09-22 17:11:00,
2013-09-22 10:17:00,58.1,51.6,29.64,WSW,244,4.0,6.0,79,0.00,,,0.07,Wunderground v.1.15,2013-09-22 17:17:00,
2013-09-22 10:22:00,58.5,52.4,29.64,South,173,3.0,7.0,80,0.00,,,0.07,Wunderground v.1.15,2013-09-22 17:22:00,
2013-09-22 10:28:00,59.2,53.0,29.64,SE,132,4.0,8.0,80,0.00,,,0.07,Wunderground v.1.15,2013-09-22 17:28:00,
2013-09-22 10:33:00,60.0,52.4,29.64,North,355,3.0,3.0,76,0.00,,,0.07,Wunderground v.1.15,2013-09-22 17:33:00,
2013-09-22 10:38:00,60.9,52.9,29.63,East,97,2.0,6.0,75,0.00,,,0.07,Wunderground v.1.15,2013-09-22 17:38:00,
2013-09-22 10:44:00,61.7,54.4,29.63,West,276,1.0,1.0,77,0.00,,,0.07,Wunderground v.1.15,2013-09-22 17:44:00,
2013-09-22 10:49:00,62.0,51.7,29.62,WSW,246,2.0,6.0,69,0.00,,,0.07,Wunderground v.1.15,2013-09-22 17:49:00,
2013-09-22 10:54:00,62.2,51.5,29.62,SW,224,3.0,6.0,68,0.00,,,0.07,Wunderground v.1.15,2013-09-22 17:54:00,
2013-09-22 11:00:00,62.3,52.8,29.62,SW,230,3.0,11.0,71,0.00,,,0.07,Wunderground v.1.15,2013-09-22 18:00:00,
2013-09-22 11:05:00,62.2,53.1,29.62,West,273,2.0,4.0,72,0.00,,,0.07,Wunderground v.1.15,2013-09-22 18:05:00,
2013-09-22 11:11:00,62.2,51.5,29.61,East,101,1.0,4.0,68,0.00,,,0.07,Wunderground v.1.15,2013-09-22 18:11:00,
2013-09-22 11:16:00,62.0,50.9,29.61,SW,229,3.0,7.0,67,0.00,,,0.07,Wunderground v.1.15,2013-09-22 18:16:00,
2013-09-22 11:22:00,62.0,51.3,29.61,WNW,286,2.0,7.0,68,0.00,,,0.07,Wunderground v.1.15,2013-09-22 18:22:00,
2013-09-22 11:27:00,61.7,51.8,29.61,South,191,1.0,4.0,70,0.00,,,0.07,Wunderground v.1.15,2013-09-22 18:27:00,
2013-09-22 11:33:00,61.3,49.8,29.61,SE,143,2.0,2.0,66,0.00,,,0.07,Wunderground v.1.15,2013-09-22 18:33:00,
2013-09-22 11:39:00,61.1,51.6,29.60,SSW,192,2.0,3.0,71,0.00,,,0.07,Wunderground v.1.15,2013-09-22 18:39:00,
2013-09-22 11:45:00,60.8,51.3,29.60,East,101,1.0,1.0,71,0.00,,,0.07,Wunderground v.1.15,2013-09-22 18:45:00,
2013-09-22 11:50:00,60.7,52.0,29.60,SSE,163,1.0,4.0,73,0.00,,,0.07,Wunderground v.1.15,2013-09-22 18:50:00,
2013-09-22 11:56:00,60.3,52.3,29.60,East,94,1.0,2.0,75,0.00,,,0.07,Wunderground v.1.15,2013-09-22 18:56:00,
2013-09-22 12:01:00,60.0,51.3,29.60,SSE,160,1.0,4.0,73,0.00,,,0.07,Wunderground v.1.15,2013-09-22 19:01:00,
2013-09-22 12:07:00,59.7,52.5,29.60,South,171,1.0,1.0,77,0.00,,,0.08,Wunderground v.1.15,2013-09-22 19:07:00,
2013-09-22 12:13:00,59.3,53.1,29.61,SSW,212,0.0,1.0,80,0.08,,,0.09,Wunderground v.1.15,2013-09-22 19:13:00,
2013-09-22 12:19:00,58.8,53.3,29.61,SSW,212,1.0,1.0,82,0.08,,,0.09,Wunderground v.1.15,2013-09-22 19:19:00,
2013-09-22 12:25:00,58.3,53.5,29.61,SSW,212,0.0,0.0,84,0.20,,,0.11,Wunderground v.1.15,2013-09-22 19:25:00,
2013-09-22 12:30:00,57.8,53.6,29.61,SE,145,0.0,0.0,86,0.13,,,0.13,Wunderground v.1.15,2013-09-22 19:30:00,
2013-09-22 12:35:00,57.3,53.5,29.61,SE,131,1.0,1.0,87,0.21,,,0.14,Wunderground v.1.15,2013-09-22 19:35:00,
2013-09-22 12:41:00,56.7,52.6,29.61,SE,130,1.0,5.0,86,0.11,,,0.15,Wunderground v.1.15,2013-09-22 19:41:00,
2013-09-22 12:47:00,56.3,53.1,29.61,ESE,122,1.0,4.0,89,0.08,,,0.16,Wunderground v.1.15,2013-09-22 19:47:00,
2013-09-22 12:53:00,56.0,53.1,29.61,ESE,122,1.0,1.0,90,0.18,,,0.18,Wunderground v.1.15,2013-09-22 19:53:00,
2013-09-22 12:58:00,55.8,52.9,29.61,ESE,122,1.0,2.0,90,0.11,,,0.19,Wunderground v.1.15,2013-09-22 19:58:00,
2013-09-22 13:04:00,55.6,53.0,29.61,ESE,122,1.0,1.0,91,0.15,,,0.20,Wunderground v.1.15,2013-09-22 20:04:00,
2013-09-22 13:10:00,55.4,52.8,29.61,ENE,69,0.0,3.0,91,0.13,,,0.22,Wunderground v.1.15,2013-09-22 20:10:00,
2013-09-22 13:15:00,55.2,52.9,29.61,ESE,103,1.0,1.0,92,0.17,,,0.23,Wunderground v.1.15,2013-09-22 20:15:00,
2013-09-22 13:20:00,55.1,53.1,29.61,East,86,1.0,2.0,93,0.08,,,0.24,Wunderground v.1.15,2013-09-22 20:20:00,
2013-09-22 13:26:00,55.0,53.0,29.61,West,274,1.0,1.0,93,0.17,,,0.26,Wunderground v.1.15,2013-09-22 20:26:00,
2013-09-22 13:31:00,54.7,52.4,29.62,East,84,0.0,1.0,92,0.42,,,0.29,Wunderground v.1.15,2013-09-22 20:31:00,
2013-09-22 13:38:00,54.6,52.6,29.62,SSE,152,1.0,2.0,93,0.57,,,0.35,Wunderground v.1.15,2013-09-22 20:38:00,
2013-09-22 13:44:00,54.4,52.4,29.62,ESE,121,2.0,5.0,93,0.19,,,0.37,Wunderground v.1.15,2013-09-22 20:44:00,
2013-09-22 13:49:00,54.3,52.3,29.62,ESE,103,2.0,5.0,93,0.15,,,0.39,Wunderground v.1.15,2013-09-22 20:49:00,
2013-09-22 13:55:00,54.2,52.5,29.61,ESE,103,1.0,1.0,94,0.11,,,0.40,Wunderground v.1.15,2013-09-22 20:55:00,
2013-09-22 14:00:00,54.3,52.9,29.62,East,89,0.0,1.0,95,0.10,,,0.40,Wunderground v.1.15,2013-09-22 21:00:00,
2013-09-22 14:06:00,54.4,53.0,29.62,SW,221,1.0,2.0,95,0.09,,,0.41,Wunderground v.1.15,2013-09-22 21:06:00,
2013-09-22 14:11:00,54.6,53.2,29.61,NNW,339,1.0,5.0,95,0.06,,,0.41,Wunderground v.1.15,2013-09-22 21:11:00,
2013-09-22 14:17:00,54.8,53.4,29.61,SW,223,2.0,2.0,95,0.04,,,0.41,Wunderground v.1.15,2013-09-22 21:17:00,
2013-09-22 14:22:00,55.1,54.0,29.61,SW,223,1.0,3.0,96,0.04,,,0.42,Wunderground v.1.15,2013-09-22 21:22:00,
2013-09-22 14:27:00,55.5,54.4,29.62,SW,229,1.0,3.0,96,0.04,,,0.42,Wunderground v.1.15,2013-09-22 21:27:00,
2013-09-22 14:33:00,56.1,55.0,29.62,NE,54,2.0,2.0,96,0.04,,,0.42,Wunderground v.1.15,2013-09-22 21:33:00,
2013-09-22 14:38:00,57.5,56.7,29.62,WNW,300,3.0,8.0,97,0.00,,,0.42,Wunderground v.1.15,2013-09-22 21:38:00,
2013-09-22 14:44:00,58.6,57.5,29.61,SSW,194,3.0,3.0,96,0.00,,,0.42,Wunderground v.1.15,2013-09-22 21:44:00,
2013-09-22 14:50:00,59.5,56.9,29.61,SW,223,2.0,8.0,91,0.00,,,0.42,Wunderground v.1.15,2013-09-22 21:50:00,
2013-09-22 14:55:00,60.1,56.5,29.61,East,92,3.0,5.0,88,0.00,,,0.42,Wunderground v.1.15,2013-09-22 21:55:00,
2013-09-22 15:00:00,60.2,56.6,29.61,West,281,3.0,5.0,88,0.00,,,0.42,Wunderground v.1.15,2013-09-22 22:00:00,
2013-09-22 15:06:00,60.4,56.5,29.61,WSW,245,3.0,7.0,87,0.00,,,0.42,Wunderground v.1.15,2013-09-22 22:06:00,
2013-09-22 15:12:00,60.7,56.5,29.61,SW,229,4.0,9.0,86,0.00,,,0.42,Wunderground v.1.15,2013-09-22 22:12:00,
2013-09-22 15:17:00,60.6,56.1,29.61,SW,229,5.0,8.0,85,0.00,,,0.42,Wunderground v.1.15,2013-09-22 22:17:00,
2013-09-22 15:22:00,60.6,56.1,29.61,WNW,284,5.0,15.0,85,0.00,,,0.42,Wunderground v.1.15,2013-09-22 22:22:00,
2013-09-22 15:28:00,61.0,56.5,29.61,SW,225,4.0,8.0,85,0.00,,,0.42,Wunderground v.1.15,2013-09-22 22:28:00,
2013-09-22 15:33:00,61.2,55.7,29.61,West,267,5.0,5.0,82,0.00,,,0.42,Wunderground v.1.15,2013-09-22 22:33:00,
2013-09-22 15:38:00,61.3,56.4,29.61,SW,234,5.0,10.0,84,0.00,,,0.42,Wunderground v.1.15,2013-09-22 22:38:00,
2013-09-22 15:44:00,61.1,55.9,29.61,NNW,331,6.0,13.0,83,0.00,,,0.42,Wunderground v.1.15,2013-09-22 22:44:00,
2013-09-22 15:49:00,61.0,56.5,29.62,WSW,247,6.0,13.0,85,0.00,,,0.42,Wunderground v.1.15,2013-09-22 22:49:00,
2013-09-22 15:55:00,60.8,55.6,29.62,WSW,245,4.0,5.0,83,0.00,,,0.42,Wunderground v.1.15,2013-09-22 22:55:00,
2013-09-22 16:00:00,60.8,56.6,29.62,SW,224,4.0,6.0,86,0.00,,,0.42,Wunderground v.1.15,2013-09-22 23:00:00,
2013-09-22 16:06:00,60.5,55.6,29.62,WSW,246,4.0,9.0,84,0.00,,,0.42,Wunderground v.1.15,2013-09-22 23:06:00,
2013-09-22 16:11:00,60.5,55.6,29.63,SSW,199,6.0,13.0,84,0.00,,,0.42,Wunderground v.1.15,2013-09-22 23:11:00,
2013-09-22 16:17:00,60.5,56.0,29.63,WSW,254,7.0,8.0,85,0.00,,,0.42,Wunderground v.1.15,2013-09-22 23:17:00,
2013-09-22 16:22:00,60.7,56.2,29.62,SW,233,6.0,8.0,85,0.00,,,0.42,Wunderground v.1.15,2013-09-22 23:22:00,
2013-09-22 16:28:00,61.1,56.6,29.62,WSW,258,4.0,10.0,85,0.00,,,0.42,Wunderground v.1.15,2013-09-22 23:28:00,
2013-09-22 16:33:00,61.1,56.2,29.62,West,279,4.0,5.0,84,0.00,,,0.42,Wunderground v.1.15,2013-09-22 23:33:00,
2013-09-22 16:39:00,60.9,56.0,29.62,SW,227,5.0,7.0,84,0.00,,,0.42,Wunderground v.1.15,2013-09-22 23:39:00,
2013-09-22 16:45:00,60.6,56.1,29.63,WSW,244,3.0,4.0,85,0.00,,,0.42,Wunderground v.1.15,2013-09-22 23:45:00,
2013-09-22 16:51:00,60.4,56.2,29.63,WSW,249,3.0,8.0,86,0.00,,,0.42,Wunderground v.1.15,2013-09-22 23:51:00,
2013-09-22 16:56:00,60.3,55.8,29.63,SW,227,4.0,8.0,85,0.00,,,0.42,Wunderground v.1.15,2013-09-22 23:56:00,
2013-09-22 17:01:00,60.2,55.7,29.63,WSW,248,5.0,8.0,85,0.00,,,0.42,Wunderground v.1.15,2013-09-23 00:01:00,
2013-09-22 17:07:00,60.0,55.8,29.64,South,180,5.0,9.0,86,0.00,,,0.42,Wunderground v.1.15,2013-09-23 00:07:00,
2013-09-22 17:12:00,59.8,55.3,29.64,West,269,4.0,9.0,85,0.00,,,0.42,Wunderground v.1.15,2013-09-23 00:12:00,
2013-09-22 17:19:00,59.6,55.4,29.65,West,262,3.0,5.0,86,0.00,,,0.42,Wunderground v.1.15,2013-09-23 00:19:00,
2013-09-22 17:25:00,59.4,55.5,29.65,SW,234,3.0,4.0,87,0.00,,,0.42,Wunderground v.1.15,2013-09-23 00:25:00,
2013-09-22 17:30:00,59.3,55.4,29.65,WSW,244,4.0,7.0,87,0.00,,,0.42,Wunderground v.1.15,2013-09-23 00:30:00,
2013-09-22 17:36:00,59.1,55.5,29.65,West,259,3.0,4.0,88,0.00,,,0.42,Wunderground v.1.15,2013-09-23 00:36:00,
2013-09-22 17:41:00,59.0,55.4,29.65,WSW,246,2.0,4.0,88,0.00,,,0.42,Wunderground v.1.15,2013-09-23 00:41:00,
2013-09-22 17:47:00,58.9,55.7,29.65,WSW,244,2.0,5.0,89,0.00,,,0.42,Wunderground v.1.15,2013-09-23 00:47:00,
2013-09-22 17:54:00,58.9,55.4,29.65,WSW,248,3.0,3.0,88,0.00,,,0.42,Wunderground v.1.15,2013-09-23 00:54:00,
2013-09-22 17:59:00,58.8,54.9,29.65,SW,226,4.0,8.0,87,0.00,,,0.42,Wunderground v.1.15,2013-09-23 00:59:00,
2013-09-22 18:04:00,58.7,55.2,29.65,SW,219,4.0,8.0,88,0.00,,,0.42,Wunderground v.1.15,2013-09-23 01:04:00,
2013-09-22 18:10:00,58.7,54.8,29.65,WSW,240,3.0,8.0,87,0.00,,,0.42,Wunderground v.1.15,2013-09-23 01:10:00,
2013-09-22 18:15:00,58.7,55.2,29.65,SW,233,2.0,5.0,88,0.00,,,0.42,Wunderground v.1.15,2013-09-23 01:15:00,
2013-09-22 18:21:00,58.5,55.0,29.65,SW,235,3.0,7.0,88,0.00,,,0.42,Wunderground v.1.15,2013-09-23 01:21:00,
2013-09-22 18:27:00,58.3,54.8,29.65,SW,219,4.0,12.0,88,0.00,,,0.42,Wunderground v.1.15,2013-09-23 01:27:00,
2013-09-22 18:32:00,58.1,54.6,29.66,SW,217,4.0,12.0,88,0.00,,,0.42,Wunderground v.1.15,2013-09-23 01:32:00,
2013-09-22 18:38:00,58.0,54.5,29.66,WSW,240,5.0,9.0,88,0.00,,,0.42,Wunderground v.1.15,2013-09-23 01:38:00,
2013-09-22 18:43:00,58.0,54.5,29.66,WSW,247,6.0,13.0,88,0.00,,,0.42,Wunderground v.1.15,2013-09-23 01:43:00,
2013-09-22 18:49:00,57.8,54.0,29.66,SW,234,5.0,13.0,87,0.00,,,0.42,Wunderground v.1.15,2013-09-23 01:49:00,
2013-09-22 18:54:00,57.7,53.2,29.67,WSW,251,5.0,5.0,85,0.00,,,0.42,Wunderground v.1.15,2013-09-23 01:54:00,
2013-09-22 18:59:00,57.6,53.1,29.67,WSW,246,5.0,8.0,85,0.00,,,0.42,Wunderground v.1.15,2013-09-23 01:59:00,
2013-09-22 19:05:00,57.3,53.1,29.67,WSW,243,4.0,4.0,86,0.00,,,0.42,Wunderground v.1.15,2013-09-23 02:05:00,
2013-09-22 19:10:00,57.2,53.4,29.67,WSW,240,3.0,4.0,87,0.00,,,0.42,Wunderground v.1.15,2013-09-23 02:10:00,
2013-09-22 19:16:00,56.9,53.1,29.68,SW,234,3.0,5.0,87,0.00,,,0.42,Wunderground v.1.15,2013-09-23 02:16:00,
2013-09-22 19:21:00,56.6,52.8,29.68,SSW,211,3.0,9.0,87,0.00,,,0.42,Wunderground v.1.15,2013-09-23 02:21:00,
2013-09-22 19:26:00,56.4,52.6,29.68,SSW,213,4.0,8.0,87,0.00,,,0.42,Wunderground v.1.15,2013-09-23 02:26:00,
2013-09-22 19:32:00,56.1,52.3,29.68,WSW,243,3.0,8.0,87,0.00,,,0.42,Wunderground v.1.15,2013-09-23 02:32:00,
2013-09-22 19:38:00,55.8,52.0,29.68,SW,236,3.0,6.0,87,0.00,,,0.42,Wunderground v.1.15,2013-09-23 02:38:00,
2013-09-22 19:44:00,55.7,51.9,29.68,West,270,3.0,4.0,87,0.00,,,0.42,Wunderground v.1.15,2013-09-23 02:44:00,
2013-09-22 19:50:00,55.5,52.0,29.69,SW,232,3.0,6.0,88,0.00,,,0.42,Wunderground v.1.15,2013-09-23 02:50:00,
2013-09-22 19:55:00,55.5,51.7,29.69,WSW,249,3.0,4.0,87,0.00,,,0.42,Wunderground v.1.15,2013-09-23 02:55:00,
2013-09-22 20:00:00,55.5,51.7,29.69,SSW,205,3.0,6.0,87,0.00,,,0.42,Wunderground v.1.15,2013-09-23 03:00:00,
2013-09-22 20:06:00,55.4,51.6,29.69,WSW,251,3.0,6.0,87,0.00,,,0.42,Wunderground v.1.15,2013-09-23 03:06:00,
2013-09-22 20:11:00,55.4,51.6,29.70,WSW,242,3.0,6.0,87,0.00,,,0.42,Wunderground v.1.15,2013-09-23 03:11:00,
2013-09-22 20:16:00,55.4,51.6,29.70,West,269,4.0,8.0,87,0.00,,,0.42,Wunderground v.1.15,2013-09-23 03:16:00,
2013-09-22 20:22:00,55.3,51.5,29.70,SW,225,4.0,9.0,87,0.00,,,0.42,Wunderground v.1.15,2013-09-23 03:22:00,
2013-09-22 20:27:00,55.3,51.8,29.70,WSW,237,3.0,5.0,88,0.00,,,0.42,Wunderground v.1.15,2013-09-23 03:27:00,
2013-09-22 20:32:00,55.2,51.7,29.70,WSW,239,2.0,5.0,88,0.00,,,0.42,Wunderground v.1.15,2013-09-23 03:32:00,
2013-09-22 20:38:00,55.0,51.2,29.70,SW,226,3.0,5.0,87,0.00,,,0.42,Wunderground v.1.15,2013-09-23 03:38:00,
2013-09-22 20:43:00,54.9,51.4,29.71,WSW,238,3.0,3.0,88,0.00,,,0.42,Wunderground v.1.15,2013-09-23 03:43:00,
2013-09-22 20:49:00,54.9,51.4,29.71,SW,227,4.0,7.0,88,0.00,,,0.42,Wunderground v.1.15,2013-09-23 03:49:00,
2013-09-22 20:54:00,54.9,51.4,29.71,WSW,248,4.0,5.0,88,0.00,,,0.42,Wunderground v.1.15,2013-09-23 03:54:00,
2013-09-22 21:00:00,54.8,51.6,29.71,SW,217,3.0,7.0,89,0.00,,,0.42,Wunderground v.1.15,2013-09-23 04:00:00,
2013-09-22 21:01:00,54.8,51.6,29.71,WSW,248,3.0,7.0,89,0.00,,,0.42,Wunderground v.1.15,2013-09-23 04:01:00,
2013-09-22 21:02:00,54.7,51.5,29.71,SW,219,3.0,7.0,89,0.00,,,0.42,Wunderground v.1.15,2013-09-23 04:02:00,
2013-09-22 21:04:00,54.7,51.5,29.71,SW,227,3.0,3.0,89,0.00,,,0.42,Wunderground v.1.15,2013-09-23 04:04:00,
2013-09-22 21:05:00,54.6,51.4,29.72,SW,223,3.0,9.0,89,0.00,,,0.42,Wunderground v.1.15,2013-09-23 04:05:00,
2013-09-22 21:07:00,54.6,51.4,29.72,SW,226,4.0,9.0,89,0.00,,,0.42,Wunderground v.1.15,2013-09-23 04:07:00,
2013-09-22 21:12:00,54.5,51.6,29.72,SW,229,4.0,9.0,90,0.00,,,0.42,Wunderground v.1.15,2013-09-23 04:12:00,
2013-09-22 21:18:00,54.4,51.5,29.72,SW,221,4.0,9.0,90,0.00,,,0.42,Wunderground v.1.15,2013-09-23 04:18:00,
2013-09-22 21:23:00,54.4,51.5,29.72,WSW,248,4.0,9.0,90,0.00,,,0.42,Wunderground v.1.15,2013-09-23 04:23:00,
2013-09-22 21:29:00,54.3,51.4,29.73,South,189,3.0,8.0,90,0.00,,,0.42,Wunderground v.1.15,2013-09-23 04:29:00,
2013-09-22 21:35:00,54.4,51.5,29.73,WSW,255,2.0,2.0,90,0.00,,,0.42,Wunderground v.1.15,2013-09-23 04:35:00,
2013-09-22 21:41:00,54.4,51.5,29.73,SW,216,1.0,7.0,90,0.00,,,0.42,Wunderground v.1.15,2013-09-23 04:41:00,
2013-09-22 21:46:00,54.4,51.5,29.73,SW,230,2.0,7.0,90,0.00,,,0.42,Wunderground v.1.15,2013-09-23 04:46:00,
2013-09-22 21:51:00,54.5,51.9,29.74,WSW,243,3.0,7.0,91,0.00,,,0.42,Wunderground v.1.15,2013-09-23 04:51:00,
2013-09-22 21:57:00,54.4,51.8,29.74,WSW,237,3.0,3.0,91,0.00,,,0.42,Wunderground v.1.15,2013-09-23 04:57:00,
2013-09-22 22:02:00,54.4,51.8,29.74,WSW,244,3.0,8.0,91,0.00,,,0.42,Wunderground v.1.15,2013-09-23 05:02:00,
2013-09-22 22:07:00,54.5,51.9,29.74,WSW,238,2.0,3.0,91,0.00,,,0.42,Wunderground v.1.15,2013-09-23 05:07:00,
2013-09-22 22:13:00,54.5,51.9,29.74,SW,232,2.0,5.0,91,0.00,,,0.42,Wunderground v.1.15,2013-09-23 05:13:00,
2013-09-22 22:19:00,54.4,51.8,29.74,SW,226,4.0,5.0,91,0.00,,,0.42,Wunderground v.1.15,2013-09-23 05:19:00,
2013-09-22 22:25:00,54.4,51.8,29.74,WSW,251,4.0,5.0,91,0.00,,,0.42,Wunderground v.1.15,2013-09-23 05:25:00,
2013-09-22 22:30:00,54.5,52.2,29.74,WSW,254,3.0,8.0,92,0.00,,,0.42,Wunderground v.1.15,2013-09-23 05:30:00,
2013-09-22 22:36:00,54.7,52.4,29.74,WSW,246,3.0,4.0,92,0.00,,,0.42,Wunderground v.1.15,2013-09-23 05:36:00,
2013-09-22 22:41:00,54.8,52.5,29.75,WSW,238,4.0,6.0,92,0.00,,,0.42,Wunderground v.1.15,2013-09-23 05:41:00,
2013-09-22 22:47:00,54.9,52.6,29.75,West,274,5.0,11.0,92,0.00,,,0.42,Wunderground v.1.15,2013-09-23 05:47:00,
2013-09-22 22:53:00,55.0,52.4,29.75,SSW,211,5.0,5.0,91,0.00,,,0.42,Wunderground v.1.15,2013-09-23 05:53:00,
2013-09-22 22:59:00,55.1,52.5,29.76,SW,224,4.0,5.0,91,0.00,,,0.42,Wunderground v.1.15,2013-09-23 05:59:00,
2013-09-22 23:04:00,55.2,52.6,29.76,WNW,282,4.0,4.0,91,0.00,,,0.42,Wunderground v.1.15,2013-09-23 06:04:00,
2013-09-22 23:09:00,55.3,52.4,29.76,SW,226,4.0,9.0,90,0.00,,,0.42,Wunderground v.1.15,2013-09-23 06:09:00,
2013-09-22 23:15:00,55.4,52.8,29.76,SW,227,3.0,4.0,91,0.00,,,0.42,Wunderground v.1.15,2013-09-23 06:15:00,
2013-09-22 23:20:00,55.5,52.9,29.76,SW,221,2.0,5.0,91,0.00,,,0.43,Wunderground v.1.15,2013-09-23 06:20:00,
2013-09-22 23:26:00,55.5,52.9,29.76,WSW,250,2.0,6.0,91,0.00,,,0.43,Wunderground v.1.15,2013-09-23 06:26:00,
2013-09-22 23:31:00,55.4,53.1,29.76,SW,221,2.0,6.0,92,0.00,,,0.43,Wunderground v.1.15,2013-09-23 06:31:00,
2013-09-22 23:37:00,55.3,53.0,29.76,SW,223,2.0,4.0,92,0.00,,,0.43,Wunderground v.1.15,2013-09-23 06:37:00,
2013-09-22 23:42:00,55.3,53.0,29.76,SW,236,3.0,4.0,92,0.00,,,0.43,Wunderground v.1.15,2013-09-23 06:42:00,
2013-09-22 23:48:00,55.1,52.5,29.76,WSW,240,3.0,5.0,91,0.00,,,0.43,Wunderground v.1.15,2013-09-23 06:48:00,
2013-09-22 23:53:00,55.0,52.4,29.77,SW,234,3.0,6.0,91,0.00,,,0.43,Wunderground v.1.15,2013-09-23 06:53:00,
2013-09-22 23:59:00,54.9,52.6,29.77,SW,225,5.0,9.0,92,0.00,,,0.00,Wunderground v.1.15,2013-09-23 06:59:00,